Location: Agadir Mansour Mhndou
(31.2424°N, 8.7730°W)
Time: 18:30:16
(UTC+00:00)

Okean O Rocket - Pass Details

Date: 16 October 2021
Orbit: 623 x 644 km, 98.2° (Epoch: 07 December)

Event Time Altitude Azimuth Distance (km) Brightness Sun altitude
Rises 19:28:59 0° 186° (S) 2,889 5.1 -19.3°
Reaches altitude 10° 19:31:18 10° 195° (SSW) 1,985 4.3 -19.8°
Maximum altitude 19:35:15 35° 261° (W) 1,013 3.2 -20.7°
Drops below altitude 10° 19:39:13 10° 328° (NNW) 1,996 4.6 -21.5°
Sets 19:41:35 0° 337° (NNW) 2,907 5.3 -22.0°
